Overview Statistics Trail Chart Weather Telemetry Raw packets
 

This is the latest recevied weather packets stored in our database for station/object DL2AKT-20. If no packets are shown the sender has not sent any weather packets the latest 10 day(s).

<< 35 36 37 38 39 40 41 >>
Time Temp. Humidity Pressure Rain* Wind** Luminosity Snow
1777368051 17.78° C 32% 1025.5 hPa - - - -
1777367151 17.22° C 34% 1025.5 hPa - - - -
1777366251 15.56° C 37% 1025.5 hPa - - - -
1777365351 15.56° C 37% 1025.4 hPa - - - -
1777364451 13.89° C 40% 1025.4 hPa - - - -
1777363551 15° C 39% 1025.3 hPa - - - -
1777362652 14.44° C 40% 1025.2 hPa - - - -
1777361749 13.89° C 40% 1025.1 hPa - - - -
1777360849 13.33° C 41% 1025 hPa - - - -
1777359948 13.33° C 42% 1025 hPa - - - -
1777359051 12.78° C 42% 1025.1 hPa - - - -
1777358151 12.78° C 42% 1025 hPa - - - -
1777357251 12.78° C 41% 1025 hPa - - - -
1777356351 11.11° C 44% 1024.9 hPa - - - -
1777355451 10.56° C 45% 1024.5 hPa - - - -
1777354550 10° C 45% 1024.6 hPa - - - -
1777353650 10° C 45% 1024.4 hPa - - - -
1777352750 10° C 44% 1024.5 hPa - - - -
1777351850 10.56° C 43% 1024.3 hPa - - - -
1777350950 10.56° C 43% 1024.3 hPa - - - -
1777350050 10.56° C 43% 1024.1 hPa - - - -
1777349150 11.11° C 42% 1024.1 hPa - - - -
1777348250 10.56° C 42% 1024 hPa - - - -
1777347350 10.56° C 43% 1024.1 hPa - - - -
1777346450 10.56° C 42% 1024 hPa - - - -

* Rain since midnight (hover to see other rain measurements)
** Current wind speed in m/s (hover to see current wind gust speed)